Zurück zum Katalog

STARLINK-30316

AktivKommunikationVLEO
NORAD 57673·PAYLOAD·🇺🇸 United States

Gestartet Aug 22, 2023 von Vandenberg Space Force Base

Loading…

Nächste Überflüge (nächste 24 Stunden)

TLE

AktuellSource: CelesTrak SupGP

Epoche: Sep 14, 2026, 13:37 UTC

1 57673C 23124L   26257.56784722  .00110250  00000+0  32691-2 0  2571
2 57673  53.1595  47.1061 0000655  95.8883  90.0452 15.34224646    12

Verfolge STARLINK-30316 in Echtzeit mit AllMySat

Download on the App Store